Location: Ferintosh
(52.7647°N, 112.9692°W)
Time: 23:14:58
(UTC+00:00)

Vanguard 1 Rocket - Pass Details

Date: 27 May 2024
Orbit: 649 x 4221 km, 34.3° (Epoch: 13 June)

Event Time Altitude Azimuth Distance (km) Brightness Sun altitude
Rises 19:54:35 0° 267° (W) 7,370 12.1 58.3°
Reaches altitude 10° 20:01:24 10° 257° (WSW) 5,708 11.8 58.1°
Maximum altitude 20:12:26 24° 212° (SSW) 3,422 11.4 57.6°
Drops below altitude 10° 20:19:31 10° 162° (SSE) 3,520 10.9 57.3°
Sets 20:22:31 0° 148° (SSE) 4,105 11.0 57.1°
